Home   Weather   Thompson   Past weeks

Flag for Canada Past Weather in Thompson, Manitoba, Canada — Yesterday and Last 2 Weeks

Now
61 °F

Passing clouds.


Feels Like: 61 °F
Forecast: 46 / 68 °F
Wind: 2 mph from North

Location: Thompson

Current Time: Aug 31, 2016 at 8:58:46 PM

Latest Report: Aug 31, 2016 at 8:00 PM


Visibility: 15 mi

Pressure: 30.33 "Hg

Humidity: 52%

Dew Point: 43 °F

Location of ThompsonLocation

Past Weather in Thompson — Graph

°F

Thompson Temperature Yesterday

Maximum temperature yesterday: 57 °F (at 2:00 PM)
Minimum temperature yesterday: 43 °F (at 11:00 PM)
Average temperature yesterday: 53 °F

High & Low Weather Summary for the Past Weeks

 TemperatureHumidityPressure
High79 °F (Aug 17, 4:00 PM)100% (Aug 17, 10:00 PM)30.44 "Hg (Aug 17, 10:00 PM)
Low32 °F (Aug 31, 5:00 AM)31% (Aug 22, 1:00 PM)29.62 "Hg (Aug 18, 12:00 PM)
Average57 °F76%29.92 "Hg
* Reported Aug 16 7:00 PM — Aug 31 7:00 PM, Thompson, Weather by CustomWeather, © 2016

Note: Actual official high and low records may vary slightly from our data, if they occured in-between our weather recording intervals... More about our weather records

Advertising

Thompson Weather History for the Previous 24 Hours

Scroll right to see more
 ConditionsComfort  
Time TempWeatherWind HumidityBarometerVisibility
7:00 PM
Wed, Aug 31
64 °FPassing clouds.3 mph46%30.34 "Hg15 mi
6:00 PM64 °FPassing clouds.6 mph43%30.34 "Hg15 mi
5:00 PM64 °FPassing clouds.6 mph49%30.36 "Hg15 mi
4:00 PM64 °FPassing clouds.6 mph49%30.37 "Hg15 mi
3:00 PM61 °FPassing clouds.2 mph52%30.37 "Hg15 mi
2:00 PM61 °FPassing clouds.6 mph52%30.39 "Hg15 mi
1:00 PM59 °FPassing clouds.3 mph59%30.40 "Hg15 mi
12:00 PM55 °FPassing clouds.2 mph67%30.42 "Hg15 mi
11:00 AM54 °FScattered clouds.5 mph72%30.43 "Hg15 mi
10:00 AM50 °FScattered clouds.6 mph82%30.44 "Hg15 mi
9:00 AM48 °FPassing clouds.3 mph94%30.44 "Hg15 mi
8:00 AM39 °FFog.No wind100%30.44 "Hg1 mi
7:00 AM32 °FIce fog.No wind93%30.43 "Hg0 mi
6:00 AM32 °FIce fog.2 mph100%30.42 "Hg1 mi
5:00 AM32 °FIce fog.No wind100%30.41 "Hg2 mi
4:00 AM36 °FFog.No wind93%30.40 "Hg6 mi
3:00 AM37 °FClear.No wind93%30.39 "Hg15 mi
2:00 AM39 °FClear.2 mph93%30.38 "Hg15 mi
1:00 AM39 °FClear.No wind100%30.37 "Hg15 mi
12:00 AM41 °FClear.No wind93%30.36 "Hg15 mi
11:00 PM
Tue, Aug 30
43 °FPassing clouds.3 mph93%30.35 "Hg15 mi
10:00 PM46 °FPassing clouds.2 mph87%30.34 "Hg15 mi
9:00 PM50 °FScattered clouds.3 mph82%30.33 "Hg15 mi
8:00 PM55 °FPartly sunny.3 mph67%30.32 "Hg15 mi
Weather by CustomWeather, © 2016

See weather overviewHow to use our weather pages